PulseSat

PulseSat

GORIZONT 21 [-]

Last updated on July 19, 2018, 12:20 a.m. UTC

1 20923U 90094A   18199.67990318  .00000094  00000-0  00000+0 0  9991
2 20923  14.9950   1.1030 0004830 226.9207 341.3166  1.00192817101458
UTC
Height (km)
Latitude
Longitude
Inclination
Orbital Period

Next 30 passes for location: Hong Kong

Rise time Rise Azimuth (degrees) Set time Set Azimuth (degrees) Duration Max altitude (degrees)
2018/7/20 07:18:39 UTC
282.34°
282.34° 2018/7/19 11:33:47 UTC
277.64°
277.64° -1185.0 min 8.0 sec 1.01°

PulseSat

PulseSat is the new satellites software and hardware trackering solution by Pulsely.
Satellite Two Line Element Set source: US Air Force Space Command

Download PulseSat for iOS
© 2017 Pulsely Limited